Temperature
14 13 13 13 13 13 14 14 14 14 14 14 14 14 14 15 15 15 16 16 16 16 16 16 16 16 15 15 15 16 16 16 16 16 15 15 16 16
13 13 13 13 13 13 14 14 14 14 14 14 14 14 14 14 15 15 15 15 15 15 15 15 15 15 15 15 15 15 15 15 15 15 15 15 15 15
13 13 13 13 13 13 14 14 14 14 14 13 13 13 14 14 14 14 14 14 15 15 15 14 14 14 14 14 14 14 14 14 14 14 14 15 15 15
12 12 13 13 13 13 14 14 14 14 14 13 13 13 13 13 13 13 14 14 14 14 14 14 13 13 13 13 13 13 13 13 13 13 14 14 15 15
12 12 12 13 13 13 14 14 14 13 13 13 13 13 13 13 13 13 13 13 13 13 13 13 13 12 12 12 12 12 12 13 13 13 13 14 14 15
12 12 12 13 13 13 14 14 13 13 13 13 13 13 12 13 13 13 13 13 12 12 12 12 12 12 12 12 12 12 12 12 12 13 13 13 14 14
12 12 12 13 13 13 13 13 13 13 13 13 12 12 12 12 12 12 12 12 12 12 12 12 12 12 12 12 12 12 12 12 12 12 13 13 13 14
12 12 12 12 12 12 12 12 13 13 12 12 12 11 11 11 11 11 12 12 11 11 12 11 12 11 11 11 11 11 11 12 12 12 12 13 13 14
12 12 12 12 12 12 12 12 12 12 12 11 11 11 11 11 11 11 11 11 11 11 11 11 11 11 11 11 11 11 11 11 11 12 12 12 13 13
11 11 11 11 11 11 12 12 11 11 11 11 11 11 10 10 10 10 10 10 10 10 11 11 11 11 11 10 10 10 10 10 11 11 11 11 12 13
11 11 11 11 11 11 11 11 11 11 11 11 11 10 10 10 10 10 10 10 10 10 10 10 10 11 11 10 10 10 10 10 10 10 10 11 11 12
11 11 11 11 11 11 11 11 11 11 11 11 10 10 10 10 10 10 10 10 9 9 9 9 9 10 10 10 9 9 10 10 10 10 10 10 10 11
11 11 11 10 10 11 11 11 11 11 10 10 10 10 10 10 9 9 9 9 9 9 9 9 9 9 9 9 9 9 9 9 10 9 9 10 10 10
11 11 10 10 10 10 10 10 10 10 10 10 10 9 9 9 9 9 9 9 9 8 9 9 9 8 8 8 8 9 9 9 9 9 9 9 9 9
11 11 10 10 10 10 10 10 10 9 9 9 9 9 9 9 9 9 9 8 8 8 8 8 8 8 8 8 8 8 8 8 8 8 9 9 9 9
11 10 10 10 10 10 10 9 9 9 9 8 8 8 8 8 8 8 8 8 8 8 8 8 8 8 8 7 7 7 7 7 8 8 8 8 9 9
11 10 10 10 10 9 9 9 9 9 8 8 8 8 8 8 8 8 8 8 7 7 7 7 7 7 7 7 7 7 7 7 7 7 8 8 8 8
11 10 10 10 10 9 9 9 9 9 8 8 8 8 8 7 7 7 7 7 7 7 7 7 7 7 7 7 7 7 7 7 7 7 7 7 7 7
10 10 10 10 10 10 9 9 9 9 8 8 8 7 7 7 7 7 7 7 7 7 7 7 7 7 7 7 7 6 6 6 6 6 6 6 7 7
10 11 10 10 10 10 10 9 9 9 8 8 8 7 7 7 7 7 7 7 6 6 6 6 6 6 6 6 6 6 6 6 6 6 6 6 6 6
11 11 11 10 11 10 10 10 9 9 8 8 8 7 7 7 7 6 6 6 6 6 6 6 6 6 6 6 6 6 6 6 6 6 6 6 6 6
11 11 11 10 10 10 10 10 9 9 9 8 8 8 7 7 7 6 6 6 6 6 5 5 5 6 6 5 5 5 5 5 5 5 5 5 5 5
11 11 11 11 10 10 10 10 10 9 9 8 8 8 7 7 7 6 6 6 5 5 5 5 5 5 5 5 5 5 5 5 5 5 5 5 5 5
Wind_Speed
4 4 3 2 2 2 2 2 3 2 2 3 3 3 2 2 5 4 4 5 3 2 2 2 1 1 0 1 3 5 6 8 10 11 13 16 19 22
3 3 2 1 1 1 2 2 3 3 3 2 2 3 4 5 7 7 7 8 7 5 3 2 2 1 1 3 4 6 8 10 11 12 14 15 17 18
3 4 4 3 2 1 2 2 3 4 6 4 4 5 7 7 6 6 8 7 7 10 8 5 3 3 3 4 6 8 9 11 12 14 15 17 19 20
5 5 4 5 5 4 4 5 5 6 7 7 5 6 7 5 6 6 6 7 7 11 10 9 6 4 4 5 7 9 10 12 14 15 16 18 20 21
7 7 6 8 8 7 8 8 8 10 8 8 5 5 5 4 5 5 6 5 6 9 10 9 8 6 5 5 6 8 10 12 14 16 17 19 20 22
8 7 7 8 8 9 10 11 11 11 9 8 6 5 4 3 4 4 5 4 5 6 7 8 8 8 8 9 9 10 11 12 13 15 17 18 20 21
10 9 10 12 12 10 10 9 10 9 8 7 5 5 5 5 4 4 4 4 3 3 4 4 4 4 4 8 10 13 14 14 15 16 17 18 19 20
9 8 9 10 13 15 15 13 11 9 8 6 4 5 4 4 4 4 4 4 4 4 3 4 3 3 4 4 11 14 15 16 16 17 17 17 18 18
8 8 8 9 9 9 12 14 13 13 9 6 5 4 3 3 4 5 4 3 2 5 4 4 3 3 4 5 11 14 15 16 16 17 17 17 16 16
8 8 9 8 7 9 9 9 9 8 7 5 4 3 2 2 2 1 1 2 3 4 4 4 4 4 4 4 9 13 15 16 16 16 16 15 14 13
7 7 9 8 11 13 11 9 9 7 8 10 8 7 7 8 6 5 6 5 4 4 4 4 4 4 4 4 6 12 14 15 15 15 14 15 14 11
6 7 10 10 12 12 9 9 9 6 7 9 9 9 8 9 10 6 3 3 2 3 5 5 5 5 5 4 4 6 9 11 14 14 14 15 15 7
5 4 4 11 12 12 10 8 8 7 7 8 7 7 7 7 7 6 4 3 3 2 4 4 4 5 4 4 5 5 6 6 7 8 11 13 14 10
6 4 5 10 11 11 9 11 13 10 7 7 7 6 5 5 5 6 6 5 4 2 4 4 3 3 4 5 5 6 5 7 8 7 7 9 9 11
6 9 9 11 10 8 11 13 10 7 6 6 5 4 2 2 4 5 7 6 6 8 10 7 4 3 3 3 4 5 5 5 8 8 8 8 7 5
6 7 8 9 8 7 7 7 6 5 5 5 3 3 3 4 5 4 5 5 5 6 9 12 8 5 4 4 4 5 5 6 7 7 7 7 7 6
7 4 3 3 4 4 4 4 4 5 5 4 4 5 5 4 4 4 4 5 5 4 6 7 6 4 3 3 4 5 6 5 6 7 6 6 7 8
8 4 4 4 4 5 5 4 3 4 4 4 5 4 4 4 3 4 4 5 4 4 4 5 6 7 6 4 3 4 6 5 6 7 6 6 6 7
5 5 4 4 5 6 6 5 4 4 4 5 5 4 4 3 3 4 4 4 4 4 4 4 5 5 5 6 7 5 4 5 6 6 6 5 5 6
4 5 4 4 6 8 7 6 5 5 4 4 4 4 4 3 3 3 3 3 3 4 5 5 5 3 1 2 3 5 7 5 5 6 6 5 3 4
5 5 5 5 7 8 8 7 7 6 6 5 4 4 4 4 3 3 3 5 4 4 4 5 6 6 1 3 4 6 6 7 5 3 4 5 5 5
6 6 6 7 7 8 9 8 7 6 7 5 5 5 4 4 5 4 3 3 2 2 2 4 6 6 6 5 4 4 6 8 9 10 7 4 2 4
7 7 6 8 8 8 8 9 9 7 7 7 6 6 5 4 4 4 4 4 3 2 3 4 6 5 4 4 3 4 6 7 6 6 7 11 10 8
Wind_Direction
176 173 172 166 177 177 177 163 142 128 78 20 31 11 23 54 38 34 21 11 8 12 18 32 46 55 55 262 262 265 265 264 263 260 256 251 245 242
172 163 141 122 140 178 180 171 162 147 121 70 43 20 26 40 35 34 29 25 23 22 13 23 37 24 333 299 286 277 272 269 267 266 263 260 255 251
132 125 112 103 103 104 118 120 127 123 113 70 37 29 39 34 23 29 40 41 34 33 32 31 29 12 335 312 298 290 284 279 276 272 268 263 257 252
111 105 106 103 91 86 89 86 86 89 101 88 43 30 33 29 31 34 32 41 41 38 40 40 36 19 350 323 307 296 289 283 279 274 270 265 260 255
95 98 97 95 86 80 82 85 87 89 88 90 59 28 24 20 24 30 36 29 37 39 41 38 35 32 19 356 333 317 303 292 284 278 273 268 263 258
80 82 81 85 84 82 85 90 96 92 85 81 64 33 17 352 25 20 19 18 22 23 25 26 26 27 21 11 357 342 327 315 303 291 282 274 266 259
72 67 68 73 73 78 89 91 95 94 86 79 65 45 24 17 5 355 18 358 359 7 357 358 0 0 357 358 356 347 337 328 319 309 297 285 274 262
76 66 62 59 69 71 76 78 88 97 95 86 72 61 32 13 5 15 21 29 3 340 351 327 339 338 332 342 347 347 342 334 327 320 311 300 286 270
79 74 74 66 68 71 67 63 62 72 91 107 92 78 58 14 29 27 22 44 7 323 354 325 324 316 309 325 341 345 342 337 332 329 324 315 302 283
84 88 84 65 69 83 74 60 49 45 56 79 113 121 118 101 85 79 2 23 340 336 24 354 322 310 305 314 330 339 342 342 339 335 332 330 325 307
77 80 89 80 76 82 79 71 54 29 44 69 84 88 73 65 66 51 36 42 9 327 357 8 320 317 316 316 323 335 337 339 342 342 343 345 343 336
78 69 78 88 82 81 83 82 71 46 53 60 52 42 40 41 47 58 72 71 39 344 331 358 336 345 337 321 325 334 338 335 339 346 352 357 357 355
116 100 86 95 90 86 85 84 94 94 75 70 58 41 34 32 28 28 48 104 92 16 319 360 356 352 346 319 326 330 342 341 340 346 354 3 11 16
146 145 132 112 102 94 85 90 87 81 73 66 56 40 34 27 16 23 34 57 85 69 346 19 26 358 0 355 331 324 330 348 352 353 357 0 13 31
156 159 147 120 100 87 87 88 83 80 77 70 60 41 23 17 24 28 24 29 35 31 23 21 28 21 43 12 336 331 330 340 353 356 2 7 10 11
133 147 129 104 89 87 81 77 81 96 100 92 76 43 35 40 35 33 35 29 40 10 2 15 24 43 35 14 15 357 348 343 343 346 353 7 17 20
132 104 93 90 88 83 79 83 83 84 83 72 66 55 47 46 27 20 38 49 53 19 356 352 360 27 63 48 25 360 352 348 345 347 354 7 22 27
134 136 149 149 147 145 139 123 106 106 106 94 77 72 68 61 37 21 38 54 50 18 356 347 -0 12 11 358 25 3 353 345 341 351 360 6 16 32
136 156 168 173 165 159 157 150 147 148 133 110 96 87 83 68 55 35 32 44 41 26 3 357 18 36 29 354 328 9 9 342 348 358 4 8 12 23
155 166 177 173 160 160 162 157 149 145 134 126 118 109 101 88 72 55 51 66 57 39 22 12 9 6 353 280 304 326 5 10 355 354 350 355 18 44
178 175 171 161 163 165 166 163 158 156 154 149 147 143 131 112 95 81 79 74 76 60 39 357 318 329 319 43 25 353 339 360 24 5 348 1 2 5
178 179 175 167 168 171 169 167 163 159 157 158 163 163 152 134 127 118 105 96 90 87 40 345 346 11 34 40 17 342 342 348 359 16 31 28 16 358
177 178 177 174 175 176 171 173 171 171 170 168 170 171 164 152 148 142 129 121 124 92 48 13 4 14 18 23 13 355 355 354 355 2 355 9 32 37
Height
1437 1438 1439 1440 1441 1442 1444 1446 1449 1452 1455 1458 1460 1461 1461 1462 1462 1462 1462 1461 1461 1461 1462 1462 1462 1463 1465 1467 1468 1470 1471 1472 1473 1474 1475 1477 1479 1480
1434 1435 1437 1439 1440 1442 1444 1446 1449 1452 1455 1458 1459 1460 1460 1461 1461 1460 1459 1459 1459 1459 1459 1459 1459 1460 1461 1462 1463 1464 1464 1465 1466 1466 1467 1469 1470 1472
1433 1435 1437 1439 1441 1443 1445 1447 1450 1452 1454 1458 1459 1460 1460 1460 1460 1459 1458 1457 1457 1457 1457 1457 1457 1457 1458 1458 1459 1459 1459 1459 1459 1459 1459 1460 1461 1463
1433 1435 1438 1440 1442 1444 1446 1448 1451 1453 1455 1457 1459 1460 1460 1460 1459 1458 1458 1457 1456 1455 1455 1455 1455 1455 1455 1455 1455 1455 1454 1454 1453 1452 1452 1452 1452 1453
1435 1438 1440 1442 1444 1446 1448 1450 1452 1454 1456 1458 1460 1461 1461 1461 1460 1459 1458 1457 1456 1455 1454 1454 1453 1453 1453 1452 1451 1450 1449 1448 1447 1445 1444 1443 1443 1443
1439 1442 1444 1446 1447 1448 1450 1452 1454 1456 1458 1460 1461 1462 1462 1461 1461 1460 1459 1458 1457 1456 1455 1454 1453 1452 1451 1449 1448 1446 1444 1442 1440 1438 1435 1434 1433 1433
1444 1446 1448 1450 1451 1452 1454 1456 1457 1458 1460 1461 1462 1463 1463 1462 1462 1461 1460 1460 1459 1458 1456 1455 1453 1451 1449 1447 1445 1442 1439 1437 1434 1431 1428 1426 1424 1423
1449 1451 1453 1454 1455 1456 1458 1459 1460 1461 1462 1463 1464 1464 1465 1464 1464 1463 1462 1461 1459 1459 1457 1455 1453 1450 1448 1445 1442 1439 1436 1433 1429 1425 1422 1418 1415 1414
1455 1456 1457 1458 1459 1460 1461 1462 1463 1464 1465 1466 1466 1467 1467 1466 1466 1464 1463 1462 1461 1459 1457 1454 1452 1449 1447 1444 1441 1438 1434 1430 1425 1421 1416 1412 1408 1405
1458 1460 1460 1461 1462 1463 1463 1464 1465 1466 1467 1468 1468 1469 1469 1468 1467 1466 1465 1463 1462 1460 1457 1454 1451 1449 1447 1445 1441 1437 1433 1428 1423 1418 1414 1408 1403 1398
1461 1462 1463 1463 1464 1464 1465 1466 1467 1468 1469 1470 1470 1470 1470 1469 1468 1467 1465 1463 1462 1461 1458 1456 1452 1449 1447 1445 1441 1437 1432 1428 1423 1418 1413 1407 1401 1395
1463 1464 1464 1464 1465 1466 1467 1467 1468 1470 1471 1471 1472 1472 1471 1470 1469 1468 1466 1465 1463 1462 1460 1457 1454 1451 1448 1446 1442 1438 1433 1429 1424 1419 1413 1408 1402 1397
1464 1465 1465 1466 1467 1468 1469 1469 1470 1471 1472 1472 1472 1472 1472 1471 1470 1469 1468 1466 1465 1463 1462 1459 1456 1453 1450 1447 1444 1440 1435 1430 1425 1420 1415 1410 1406 1401
1465 1466 1466 1468 1469 1470 1471 1472 1473 1473 1473 1473 1473 1473 1473 1472 1472 1471 1469 1467 1466 1465 1463 1461 1458 1455 1452 1449 1445 1442 1438 1433 1428 1422 1418 1414 1410 1406
1465 1466 1468 1469 1471 1472 1473 1474 1474 1474 1474 1473 1473 1474 1474 1474 1473 1472 1471 1469 1468 1466 1464 1461 1459 1457 1454 1451 1448 1444 1439 1435 1431 1426 1421 1417 1414 1411
1465 1467 1469 1471 1472 1473 1475 1475 1475 1475 1474 1474 1474 1475 1475 1475 1474 1473 1472 1470 1468 1467 1465 1463 1460 1458 1455 1453 1450 1447 1443 1439 1434 1429 1426 1422 1418 1415
1464 1466 1469 1471 1473 1474 1475 1476 1476 1476 1475 1476 1476 1476 1476 1476 1475 1474 1472 1471 1470 1468 1467 1465 1462 1459 1457 1455 1452 1449 1446 1441 1437 1433 1429 1425 1422 1420
1463 1466 1468 1470 1472 1473 1474 1475 1476 1476 1477 1477 1477 1477 1477 1477 1476 1475 1474 1472 1471 1470 1468 1466 1464 1461 1459 1457 1455 1452 1448 1444 1440 1436 1433 1429 1427 1425
1462 1464 1466 1468 1470 1472 1473 1475 1476 1477 1477 1478 1478 1478 1478 1478 1477 1476 1475 1474 1472 1471 1469 1467 1465 1462 1460 1458 1457 1454 1451 1447 1443 1440 1436 1433 1431 1429
1459 1462 1464 1466 1468 1470 1472 1474 1475 1476 1477 1478 1479 1479 1479 1478 1478 1477 1476 1475 1473 1472 1470 1468 1466 1464 1462 1460 1458 1456 1453 1450 1446 1443 1440 1437 1435 1433
1456 1459 1462 1464 1466 1468 1470 1472 1474 1475 1476 1477 1478 1478 1478 1478 1477 1477 1476 1475 1473 1472 1470 1469 1467 1465 1463 1461 1459 1457 1455 1452 1449 1446 1443 1440 1438 1436
1453 1456 1459 1462 1464 1467 1469 1471 1472 1474 1475 1476 1477 1477 1477 1477 1476 1476 1475 1474 1473 1472 1470 1469 1467 1465 1463 1461 1460 1458 1456 1454 1452 1449 1446 1443 1441 1438
1449 1453 1456 1459 1462 1465 1467 1469 1470 1472 1473 1474 1475 1476 1476 1476 1475 1474 1474 1473 1472 1471 1470 1468 1467 1465 1463 1462 1460 1458 1457 1455 1452 1450 1448 1446 1444 1442